{"data":{"norad_id":67543,"epoch":"2026-05-24T23:12:44.318304Z","epoch_age_seconds":81882,"freshness":"FRESH","line1":"1 67543U 26014M   26144.96717961  .00029837  00000+0  92181-3 0  9993","line2":"2 67543  97.2871  32.0239 0001286  99.1942 260.9446 15.33481820 20470","mean_motion":15.3348182,"eccentricity":0.0001286,"inclination_deg":97.2871,"raan_deg":32.0239,"arg_perigee_deg":99.1942,"mean_anomaly_deg":260.9446,"bstar":0.00092181,"rev_number":2047,"period_min":93.903949901408,"perigee_km":464.55354307266,"apogee_km":466.31370943773,"semimajor_km":6843.5706262552,"source":"CELESTRAK","updated_at":"2026-05-25T13:38:21.608910Z"}}